Tracking 20066 objects as of 7-Dec-2019
HD Live streaming from Space Station
objects crossing your sky now

COSMOS 2251 DEB

Track COSMOS 2251 DEB now!
10-day predictions


NORAD ID: 37123
Int'l Code: 1993-036BGV
Perigee: 675.9 km
Apogee: 688.5 km
Inclination: 74.0 °
Period: 98.3 minutes
Semi major axis: 7053 km
RCS: 0.0141 m2 (small)
Launch date: June 16, 1993
Source: Commonwealth of Independent States (former USSR) (CIS)
Launch site: PLESETSK MISSILE AND SPACE COMPLEX (PKMTR)

Note: This is SATELLITE DEBRIS
aabbcc
Your satellite tracking list
Your tracking list is empty




NASA's NSSDC Master Catalog

Two Line Element Set (TLE):
1 37123U 93036BGV 19341.09249106  .00001709  00000-0  32011-3 0  9993
2 37123  73.9920 128.0412 0008933  92.5275  28.0603 14.65617466518266
Source of the keplerian elements: AFSPC